カタログに戻る

ISS

ZARYA

運用中科学VLEO
NORAD 25544·PAYLOAD·🇷🇺 Russia🇺🇸 United States

打ち上げ Nov 20, 1998 から Baikonur Cosmodrome

Loading…

次のパス (今後24時間)

TLE

最新Source: CelesTrak SupGP

元期: Sep 14, 2026, 18:00 UTC

1 25544C 98067A   26257.75000000 -.00080519  00000+0 -14525-2 0    22
2 25544  51.6292 216.8251 0004912 141.4219   4.8621 15.49121021    18

AllMySatでISSをリアルタイム追跡

Download on the App Store